Time,TemperatureF,DewpointF,PressureIn,WindDirection,WindDirectionDegrees,WindSpeedMPH,WindSpeedGustMPH,Humidity,HourlyPrecipIn,Conditions,Clouds,dailyrainin,SoftwareType,DateUTC
2013-05-04 00:02:00,41.0,-99.9,-100.00,NE,37,19.0,-999.0,0,-99.99,,,-99.99,,2013-05-04 05:02:00,
2013-05-04 00:12:00,41.0,-99.9,-100.00,NNE,21,16.0,-999.0,0,-99.99,,,-99.99,,2013-05-04 05:12:00,
2013-05-04 00:22:00,41.0,-99.9,-100.00,NNE,28,17.0,-999.0,0,-99.99,,,-99.99,,2013-05-04 05:22:00,
2013-05-04 00:32:00,41.0,-99.9,-100.00,NNE,27,17.0,-999.0,0,-99.99,,,-99.99,,2013-05-04 05:32:00,
2013-05-04 00:43:00,40.0,-99.9,-100.00,NNE,33,15.0,-999.0,0,-99.99,,,-99.99,,2013-05-04 05:43:00,
2013-05-04 00:52:00,40.0,-99.9,-100.00,NNE,31,23.0,-999.0,0,-99.99,,,-99.99,,2013-05-04 05:52:00,
2013-05-04 01:02:00,40.0,-99.9,-100.00,NNE,22,19.0,-999.0,0,-99.99,,,-99.99,,2013-05-04 06:02:00,
2013-05-04 01:12:00,40.0,-99.9,-100.00,NNE,21,26.0,-999.0,0,-99.99,,,-99.99,,2013-05-04 06:12:00,
2013-05-04 01:22:00,40.0,-99.9,-100.00,NNE,20,18.0,-999.0,0,-99.99,,,-99.99,,2013-05-04 06:22:00,
2013-05-04 01:32:00,40.0,-99.9,-100.00,NNE,16,22.0,-999.0,0,-99.99,,,-99.99,,2013-05-04 06:32:00,
2013-05-04 01:42:00,40.0,-99.9,-100.00,NNE,15,23.0,-999.0,0,-99.99,,,-99.99,,2013-05-04 06:42:00,
2013-05-04 01:52:00,40.0,-99.9,-100.00,NNE,18,26.0,-999.0,0,-99.99,,,-99.99,,2013-05-04 06:52:00,
2013-05-04 02:02:00,40.0,-99.9,-100.00,NNE,16,27.0,-999.0,0,-99.99,,,-99.99,,2013-05-04 07:02:00,
2013-05-04 02:11:00,39.0,-99.9,-100.00,NNE,26,21.0,-999.0,0,-99.99,,,-99.99,,2013-05-04 07:11:00,
2013-05-04 02:22:00,39.0,-99.9,-100.00,NNE,16,29.0,-999.0,0,-99.99,,,-99.99,,2013-05-04 07:22:00,
2013-05-04 02:32:00,39.0,-99.9,-100.00,NNE,17,24.0,-999.0,0,-99.99,,,-99.99,,2013-05-04 07:32:00,
2013-05-04 02:42:00,39.0,-99.9,-100.00,NNE,17,23.0,-999.0,0,-99.99,,,-99.99,,2013-05-04 07:42:00,
2013-05-04 02:52:00,39.0,-99.9,-100.00,NNE,18,21.0,-999.0,0,-99.99,,,-99.99,,2013-05-04 07:52:00,
2013-05-04 03:02:00,39.0,-99.9,-100.00,North,8,20.0,-999.0,0,-99.99,,,-99.99,,2013-05-04 08:02:00,
2013-05-04 03:12:00,39.0,-99.9,-100.00,NNE,18,27.0,-999.0,0,-99.99,,,-99.99,,2013-05-04 08:12:00,
2013-05-04 03:22:00,39.0,-99.9,-100.00,North,2,21.0,-999.0,0,-99.99,,,-99.99,,2013-05-04 08:22:00,
2013-05-04 03:32:00,39.0,-99.9,-100.00,NNE,14,24.0,-999.0,0,-99.99,,,-99.99,,2013-05-04 08:32:00,
2013-05-04 03:42:00,39.0,-99.9,-100.00,NNE,17,21.0,-999.0,0,-99.99,,,-99.99,,2013-05-04 08:42:00,
2013-05-04 03:52:00,39.0,-99.9,-100.00,North,5,19.0,-999.0,0,-99.99,,,-99.99,,2013-05-04 08:52:00,
2013-05-04 04:02:00,39.0,-99.9,-100.00,NNE,16,21.0,-999.0,0,-99.99,,,-99.99,,2013-05-04 09:02:00,
2013-05-04 04:12:00,39.0,-99.9,-100.00,East,92,22.0,-999.0,0,-99.99,,,-99.99,,2013-05-04 09:12:00,
2013-05-04 04:22:00,39.0,-99.9,-100.00,NNE,13,21.0,-999.0,0,-99.99,,,-99.99,,2013-05-04 09:22:00,
2013-05-04 04:33:00,39.0,-99.9,-100.00,NE,40,24.0,-999.0,0,-99.99,,,-99.99,,2013-05-04 09:33:00,
2013-05-04 04:43:00,38.0,-99.9,-100.00,NNE,31,17.0,-999.0,0,-99.99,,,-99.99,,2013-05-04 09:43:00,
2013-05-04 04:53:00,38.0,-99.9,-100.00,NNE,14,17.0,-999.0,0,-99.99,,,-99.99,,2013-05-04 09:53:00,
2013-05-04 05:03:00,38.0,-99.9,-100.00,NNE,23,20.0,-999.0,0,-99.99,,,-99.99,,2013-05-04 10:03:00,
2013-05-04 05:12:00,38.0,-99.9,-100.00,NNE,14,22.0,-999.0,0,-99.99,,,-99.99,,2013-05-04 10:12:00,
2013-05-04 05:23:00,38.0,-99.9,-100.00,North,9,26.0,-999.0,0,-99.99,,,-99.99,,2013-05-04 10:23:00,
2013-05-04 05:33:00,38.0,-99.9,-100.00,North,11,24.0,-999.0,0,-99.99,,,-99.99,,2013-05-04 10:33:00,
2013-05-04 05:42:00,38.0,-99.9,-100.00,North,7,21.0,-999.0,0,-99.99,,,-99.99,,2013-05-04 10:42:00,
2013-05-04 05:53:00,37.0,-99.9,-100.00,NNE,13,24.0,-999.0,0,-99.99,,,-99.99,,2013-05-04 10:53:00,
2013-05-04 06:02:00,37.0,-99.9,-100.00,NNE,17,24.0,-999.0,0,-99.99,,,-99.99,,2013-05-04 11:02:00,
2013-05-04 06:12:00,37.0,-99.9,-100.00,NNE,18,23.0,-999.0,0,-99.99,,,-99.99,,2013-05-04 11:12:00,
2013-05-04 06:22:00,37.0,-99.9,-100.00,North,8,22.0,-999.0,0,-99.99,,,-99.99,,2013-05-04 11:22:00,
2013-05-04 06:32:00,37.0,-99.9,-100.00,NNE,21,23.0,-999.0,0,-99.99,,,-99.99,,2013-05-04 11:32:00,
2013-05-04 06:47:00,36.0,-99.9,-100.00,North,6,22.0,-999.0,0,-99.99,,,-99.99,,2013-05-04 11:47:00,
2013-05-04 07:04:00,36.0,-99.9,-100.00,North,11,23.0,-999.0,0,-99.99,,,-99.99,,2013-05-04 12:04:00,
2013-05-04 07:10:00,36.0,-99.9,-100.00,North,11,23.0,-999.0,0,-99.99,,,-99.99,,2013-05-04 12:10:00,
2013-05-04 07:31:00,36.0,-99.9,-100.00,North,10,18.0,-999.0,0,-99.99,,,-99.99,,2013-05-04 12:31:00,
2013-05-04 07:42:00,36.0,-99.9,-100.00,North,7,19.0,-999.0,0,-99.99,,,-99.99,,2013-05-04 12:42:00,
2013-05-04 07:52:00,36.0,-99.9,-100.00,NNE,13,23.0,-999.0,0,-99.99,,,-99.99,,2013-05-04 12:52:00,
2013-05-04 08:02:00,36.0,-99.9,-100.00,East,90,19.0,-999.0,0,-99.99,,,-99.99,,2013-05-04 13:02:00,
2013-05-04 08:11:00,36.0,-99.9,-100.00,North,6,23.0,-999.0,0,-99.99,,,-99.99,,2013-05-04 13:11:00,
2013-05-04 08:22:00,36.0,-99.9,-100.00,NNE,14,23.0,-999.0,0,-99.99,,,-99.99,,2013-05-04 13:22:00,
2013-05-04 08:32:00,36.0,-99.9,-100.00,North,10,23.0,-999.0,0,-99.99,,,-99.99,,2013-05-04 13:32:00,
2013-05-04 08:42:00,36.0,-99.9,-100.00,North,11,23.0,-999.0,0,-99.99,,,-99.99,,2013-05-04 13:42:00,
2013-05-04 08:53:00,36.0,-99.9,-100.00,North,8,24.0,-999.0,0,-99.99,,,-99.99,,2013-05-04 13:53:00,
2013-05-04 09:02:00,36.0,-99.9,-100.00,West,260,25.0,-999.0,0,-99.99,,,-99.99,,2013-05-04 14:02:00,
2013-05-04 09:11:00,36.0,-99.9,-100.00,North,6,21.0,-999.0,0,-99.99,,,-99.99,,2013-05-04 14:11:00,
2013-05-04 09:22:00,37.0,-99.9,-100.00,NNE,19,23.0,-999.0,0,-99.99,,,-99.99,,2013-05-04 14:22:00,
2013-05-04 09:32:00,36.0,-99.9,-100.00,North,11,28.0,-999.0,0,-99.99,,,-99.99,,2013-05-04 14:32:00,
2013-05-04 09:42:00,36.0,-99.9,-100.00,North,9,20.0,-999.0,0,-99.99,,,-99.99,,2013-05-04 14:42:00,
2013-05-04 09:52:00,36.0,-99.9,-100.00,North,9,26.0,-999.0,0,-99.99,,,-99.99,,2013-05-04 14:52:00,
2013-05-04 10:02:00,36.0,-99.9,-100.00,North,4,30.0,-999.0,0,-99.99,,,-99.99,,2013-05-04 15:02:00,
2013-05-04 10:12:00,37.0,-99.9,-100.00,North,10,27.0,-999.0,0,-99.99,,,-99.99,,2013-05-04 15:12:00,
2013-05-04 10:22:00,37.0,-99.9,-100.00,NNE,19,27.0,-999.0,0,-99.99,,,-99.99,,2013-05-04 15:22:00,
2013-05-04 10:33:00,37.0,-99.9,-100.00,NNE,19,25.0,-999.0,0,-99.99,,,-99.99,,2013-05-04 15:33:00,
2013-05-04 10:43:00,37.0,-99.9,-100.00,South,175,24.0,-999.0,0,-99.99,,,-99.99,,2013-05-04 15:43:00,
2013-05-04 10:53:00,37.0,-99.9,-100.00,North,8,21.0,-999.0,0,-99.99,,,-99.99,,2013-05-04 15:53:00,
2013-05-04 11:03:00,37.0,-99.9,-100.00,North,8,21.0,-999.0,0,-99.99,,,-99.99,,2013-05-04 16:03:00,
2013-05-04 11:12:00,37.0,-99.9,-100.00,NNE,19,19.0,-999.0,0,-99.99,,,-99.99,,2013-05-04 16:12:00,
2013-05-04 11:22:00,37.0,-99.9,-100.00,NNE,22,18.0,-999.0,0,-99.99,,,-99.99,,2013-05-04 16:22:00,
2013-05-04 11:33:00,37.0,-99.9,-100.00,NNE,22,21.0,-999.0,0,-99.99,,,-99.99,,2013-05-04 16:33:00,
2013-05-04 11:42:00,37.0,-99.9,-100.00,North,9,19.0,-999.0,0,-99.99,,,-99.99,,2013-05-04 16:42:00,
2013-05-04 11:52:00,37.0,-99.9,-100.00,NNE,25,22.0,-999.0,0,-99.99,,,-99.99,,2013-05-04 16:52:00,
2013-05-04 12:02:00,37.0,-99.9,-100.00,NNE,16,16.0,-999.0,0,-99.99,,,-99.99,,2013-05-04 17:02:00,
2013-05-04 12:12:00,37.0,-99.9,-100.00,NNE,16,19.0,-999.0,0,-99.99,,,-99.99,,2013-05-04 17:12:00,
2013-05-04 12:23:00,37.0,-99.9,-100.00,North,11,19.0,-999.0,0,-99.99,,,-99.99,,2013-05-04 17:23:00,
2013-05-04 12:33:00,37.0,-99.9,-100.00,NNE,18,19.0,-999.0,0,-99.99,,,-99.99,,2013-05-04 17:33:00,
2013-05-04 12:42:00,37.0,-99.9,-100.00,NNE,17,24.0,-999.0,0,-99.99,,,-99.99,,2013-05-04 17:42:00,
2013-05-04 12:52:00,37.0,-99.9,-100.00,North,9,21.0,-999.0,0,-99.99,,,-99.99,,2013-05-04 17:52:00,
2013-05-04 13:01:00,38.0,-99.9,-100.00,South,173,17.0,-999.0,0,-99.99,,,-99.99,,2013-05-04 18:01:00,
2013-05-04 13:12:00,37.0,-99.9,-100.00,North,11,22.0,-999.0,0,-99.99,,,-99.99,,2013-05-04 18:12:00,
2013-05-04 13:22:00,37.0,-99.9,-100.00,NNE,13,20.0,-999.0,0,-99.99,,,-99.99,,2013-05-04 18:22:00,
2013-05-04 13:32:00,37.0,-99.9,-100.00,NNE,14,20.0,-999.0,0,-99.99,,,-99.99,,2013-05-04 18:32:00,
2013-05-04 13:42:00,37.0,-99.9,-100.00,NNE,15,20.0,-999.0,0,-99.99,,,-99.99,,2013-05-04 18:42:00,
2013-05-04 13:52:00,38.0,-99.9,-100.00,North,4,18.0,-999.0,0,-99.99,,,-99.99,,2013-05-04 18:52:00,
2013-05-04 14:02:00,37.0,-99.9,-100.00,North,7,22.0,-999.0,0,-99.99,,,-99.99,,2013-05-04 19:02:00,
2013-05-04 14:11:00,37.0,-99.9,-100.00,South,173,21.0,-999.0,0,-99.99,,,-99.99,,2013-05-04 19:11:00,
2013-05-04 14:22:00,38.0,-99.9,-100.00,NNE,12,22.0,-999.0,0,-99.99,,,-99.99,,2013-05-04 19:22:00,
2013-05-04 14:32:00,38.0,-99.9,-100.00,North,7,27.0,-999.0,0,-99.99,,,-99.99,,2013-05-04 19:32:00,
2013-05-04 14:42:00,38.0,-99.9,-100.00,West,260,21.0,-999.0,0,-99.99,,,-99.99,,2013-05-04 19:42:00,
2013-05-04 14:52:00,38.0,-99.9,-100.00,NE,44,19.0,-999.0,0,-99.99,,,-99.99,,2013-05-04 19:52:00,
2013-05-04 15:02:00,38.0,-99.9,-100.00,North,5,25.0,-999.0,0,-99.99,,,-99.99,,2013-05-04 20:02:00,
2013-05-04 15:11:00,38.0,-99.9,-100.00,North,10,20.0,-999.0,0,-99.99,,,-99.99,,2013-05-04 20:11:00,
2013-05-04 15:22:00,38.0,-99.9,-100.00,NNE,14,22.0,-999.0,0,-99.99,,,-99.99,,2013-05-04 20:22:00,
2013-05-04 15:32:00,38.0,-99.9,-100.00,NNE,16,19.0,-999.0,0,-99.99,,,-99.99,,2013-05-04 20:32:00,
2013-05-04 15:42:00,38.0,-99.9,-100.00,NNE,17,20.0,-999.0,0,-99.99,,,-99.99,,2013-05-04 20:42:00,
2013-05-04 15:52:00,39.0,-99.9,-100.00,NNE,17,17.0,-999.0,0,-99.99,,,-99.99,,2013-05-04 20:52:00,
2013-05-04 16:02:00,38.0,-99.9,-100.00,NNE,21,18.0,-999.0,0,-99.99,,,-99.99,,2013-05-04 21:02:00,
2013-05-04 16:12:00,39.0,-99.9,-100.00,NNE,14,12.0,-999.0,0,-99.99,,,-99.99,,2013-05-04 21:12:00,
2013-05-04 16:22:00,38.0,-99.9,-100.00,ENE,72,18.0,-999.0,0,-99.99,,,-99.99,,2013-05-04 21:22:00,
2013-05-04 16:33:00,38.0,-99.9,-100.00,SW,219,19.0,-999.0,0,-99.99,,,-99.99,,2013-05-04 21:33:00,
2013-05-04 16:43:00,39.0,-99.9,-100.00,East,92,20.0,-999.0,0,-99.99,,,-99.99,,2013-05-04 21:43:00,
2013-05-04 16:53:00,39.0,-99.9,-100.00,North,4,17.0,-999.0,0,-99.99,,,-99.99,,2013-05-04 21:53:00,
2013-05-04 17:03:00,39.0,-99.9,-100.00,NNE,20,19.0,-999.0,0,-99.99,,,-99.99,,2013-05-04 22:03:00,
2013-05-04 17:12:00,39.0,-99.9,-100.00,East,90,16.0,-999.0,0,-99.99,,,-99.99,,2013-05-04 22:12:00,
2013-05-04 17:22:00,39.0,-99.9,-100.00,East,90,19.0,-999.0,0,-99.99,,,-99.99,,2013-05-04 22:22:00,
2013-05-04 17:33:00,39.0,-99.9,-100.00,North,10,14.0,-999.0,0,-99.99,,,-99.99,,2013-05-04 22:33:00,
2013-05-04 17:43:00,39.0,-99.9,-100.00,NNE,14,21.0,-999.0,0,-99.99,,,-99.99,,2013-05-04 22:43:00,
2013-05-04 17:52:00,39.0,-99.9,-100.00,North,3,20.0,-999.0,0,-99.99,,,-99.99,,2013-05-04 22:52:00,
2013-05-04 18:02:00,39.0,-99.9,-100.00,NNE,18,13.0,-999.0,0,-99.99,,,-99.99,,2013-05-04 23:02:00,
2013-05-04 18:12:00,39.0,-99.9,-100.00,NNE,22,17.0,-999.0,0,-99.99,,,-99.99,,2013-05-04 23:12:00,
2013-05-04 18:22:00,39.0,-99.9,-100.00,East,88,18.0,-999.0,0,-99.99,,,-99.99,,2013-05-04 23:22:00,
2013-05-04 18:32:00,39.0,-99.9,-100.00,North,3,16.0,-999.0,0,-99.99,,,-99.99,,2013-05-04 23:32:00,
2013-05-04 18:43:00,39.0,-99.9,-100.00,North,3,17.0,-999.0,0,-99.99,,,-99.99,,2013-05-04 23:43:00,
2013-05-04 18:52:00,40.0,-99.9,-100.00,North,10,14.0,-999.0,0,-99.99,,,-99.99,,2013-05-04 23:52:00,
2013-05-04 19:02:00,40.0,-99.9,-100.00,NNE,12,18.0,-999.0,0,-99.99,,,-99.99,,2013-05-05 00:02:00,
2013-05-04 19:12:00,39.0,-99.9,-100.00,North,2,14.0,-999.0,0,-99.99,,,-99.99,,2013-05-05 00:12:00,
2013-05-04 19:22:00,39.0,-99.9,-100.00,NNE,13,17.0,-999.0,0,-99.99,,,-99.99,,2013-05-05 00:22:00,
2013-05-04 19:32:00,39.0,-99.9,-100.00,NNE,12,16.0,-999.0,0,-99.99,,,-99.99,,2013-05-05 00:32:00,
2013-05-04 19:42:00,39.0,-99.9,-100.00,NNE,12,16.0,-999.0,0,-99.99,,,-99.99,,2013-05-05 00:42:00,
2013-05-04 19:52:00,39.0,-99.9,-100.00,North,6,17.0,-999.0,0,-99.99,,,-99.99,,2013-05-05 00:52:00,
2013-05-04 20:01:00,39.0,-99.9,-100.00,North,11,18.0,-999.0,0,-99.99,,,-99.99,,2013-05-05 01:01:00,
2013-05-04 20:11:00,39.0,-99.9,-100.00,NNE,12,17.0,-999.0,0,-99.99,,,-99.99,,2013-05-05 01:11:00,
2013-05-04 20:22:00,39.0,-99.9,-100.00,North,8,13.0,-999.0,0,-99.99,,,-99.99,,2013-05-05 01:22:00,
2013-05-04 20:32:00,39.0,-99.9,-100.00,NNE,12,15.0,-999.0,0,-99.99,,,-99.99,,2013-05-05 01:32:00,
2013-05-04 20:42:00,39.0,-99.9,-100.00,North,6,14.0,-999.0,0,-99.99,,,-99.99,,2013-05-05 01:42:00,
2013-05-04 20:52:00,39.0,-99.9,-100.00,South,173,13.0,-999.0,0,-99.99,,,-99.99,,2013-05-05 01:52:00,
2013-05-04 21:02:00,39.0,-99.9,-100.00,North,9,15.0,-999.0,0,-99.99,,,-99.99,,2013-05-05 02:02:00,
2013-05-04 21:12:00,39.0,-99.9,-100.00,North,9,14.0,-999.0,0,-99.99,,,-99.99,,2013-05-05 02:12:00,
2013-05-04 21:22:00,39.0,-99.9,-100.00,South,174,14.0,-999.0,0,-99.99,,,-99.99,,2013-05-05 02:22:00,
2013-05-04 21:32:00,38.0,-99.9,-100.00,West,259,16.0,-999.0,0,-99.99,,,-99.99,,2013-05-05 02:32:00,
2013-05-04 21:42:00,39.0,-99.9,-100.00,NNE,18,15.0,-999.0,0,-99.99,,,-99.99,,2013-05-05 02:42:00,
2013-05-04 21:52:00,39.0,-99.9,-100.00,West,259,13.0,-999.0,0,-99.99,,,-99.99,,2013-05-05 02:52:00,
2013-05-04 22:02:00,39.0,-99.9,-100.00,NNE,13,12.0,-999.0,0,-99.99,,,-99.99,,2013-05-05 03:02:00,
2013-05-04 22:12:00,38.0,-99.9,-100.00,NNE,12,11.0,-999.0,0,-99.99,,,-99.99,,2013-05-05 03:12:00,
2013-05-04 22:22:00,38.0,-99.9,-100.00,NNE,13,12.0,-999.0,0,-99.99,,,-99.99,,2013-05-05 03:22:00,
2013-05-04 22:33:00,38.0,-99.9,-100.00,South,173,9.0,-999.0,0,-99.99,,,-99.99,,2013-05-05 03:33:00,
2013-05-04 22:43:00,38.0,-99.9,-100.00,NNE,12,11.0,-999.0,0,-99.99,,,-99.99,,2013-05-05 03:43:00,
2013-05-04 22:53:00,39.0,-99.9,-100.00,North,9,13.0,-999.0,0,-99.99,,,-99.99,,2013-05-05 03:53:00,
2013-05-04 23:03:00,38.0,-99.9,-100.00,NNE,18,13.0,-999.0,0,-99.99,,,-99.99,,2013-05-05 04:03:00,
2013-05-04 23:13:00,38.0,-99.9,-100.00,South,176,11.0,-999.0,0,-99.99,,,-99.99,,2013-05-05 04:13:00,
2013-05-04 23:23:00,38.0,-99.9,-100.00,NNE,16,9.0,-999.0,0,-99.99,,,-99.99,,2013-05-05 04:23:00,
2013-05-04 23:33:00,38.0,-99.9,-100.00,North,11,10.0,-999.0,0,-99.99,,,-99.99,,2013-05-05 04:33:00,
2013-05-04 23:43:00,39.0,-99.9,-100.00,NNE,14,12.0,-999.0,0,-99.99,,,-99.99,,2013-05-05 04:43:00,
2013-05-04 23:53:00,39.0,-99.9,-100.00,South,176,9.0,-999.0,0,-99.99,,,-99.99,,2013-05-05 04:53:00,